リニア彗星

249P/LINEAR (2015)

English version
Home page
Updated on March 26, 2016

---------------------------------------------------------------------

・ プロフィール

・ 写真集

・ 軌道要素

Epoch 2015 Dec. 4.0 TT = JDT 2457360.5
T 2015 Nov. 26.70311 TT                                 MPCW
q   0.4990117            (2000.0)            P               Q
n   0.21451102     Peri.   65.62625     +0.56216718     +0.81747124
a   2.7637769      Node   239.16195     -0.80179819     +0.50158081
e   0.8194457      Incl.    8.39360     -0.20270106     +0.28312094
P   4.59
From 373 observations 2006 Oct. 19-2015 Feb. 20, mean residual 0".4.

・ 星図

・ 光度変化

	H = 16.0  G = 0.15                [   ,-60]  (              〜2015年 9月27日)
        m1 = 15.5 + 5 logΔ + 16.0 log r  [-60, 80]  (2015年 9月27日〜2016年 2月14日)
	H = 16.0  G = 0.15                [ 80,   ]  (2016年 2月14日〜              )

---------------------------------------------------------------------

軌道要素はM.P.E.C. 2015-E14に掲載されたものです。
星図はステラナビゲータ Ver.8 (アストロアーツ) で作成したものです。
光度グラフはComet for Windowsで作成したものです。

---------------------------------------------------------------------

Copyright(C) Seiichi Yoshida (comet@aerith.net). All rights reserved.